Flag for U.S.A. Weather past 2 weeks in Irving, Texas, U.S.A.

Now
80 °F

Partly cloudy.


Feels Like: 83 °F
Forecast: 76 / 97 °F
Wind: 12 mph from South

Location: Dallas / Fort Worth International Airport

Current Time: Aug 20, 2014 at 7:47:49 AM

Latest Report: Aug 20, 2014 at 6:53 AM


Visibility: 10 mi

Pressure: 29.90 "Hg

Humidity: 71%

Dew point: 70 °F

Location of IrvingLocation

Historic Weather in Irving — Graph

°F

Irving temperature yesterday

Maximum temperature yesterday: 93 °F (at 4:53 PM)
Minimum temperature yesterday: 77 °F (at 5:53 AM)
Average temperature yesterday: 85 °F

Past Weeks' High & Low Weather Summary

 TemperatureHumidityPressure
High103 °F (Aug 8, 3:53 PM)94% (Aug 18, 1:53 AM)30.09 "Hg (Aug 18, 1:53 AM)
Low70 °F (Aug 17, 10:01 AM)27% (Aug 13, 5:53 PM)29.75 "Hg (Aug 7, 6:53 PM)
Average86 °F55%29.93 "Hg
* Reported Aug 5 6:53 AM — Aug 20 6:53 AM, Irving, Weather by CustomWeather, © 2014

Note: Actual official high and low records may vary slightly from our data, if they occured in-between our weather recording intervals... More about our weather records

Advertising

Irving weather history for previous 24 hours

 ConditionsComfort  
Time TempWeatherWind HumidityBarometerVisibility
6:53 AM
Aug 20
80 °FPartly cloudy.12 mph71%29.90 "Hg10 mi
5:53 AM81 °FMostly cloudy.13 mph67%29.87 "Hg10 mi
4:53 AM82 °FPartly cloudy.15 mph65%29.86 "Hg10 mi
3:53 AM81 °FPassing clouds.16 mph69%29.85 "Hg10 mi
2:53 AM81 °FMostly cloudy.13 mph69%29.85 "Hg10 mi
1:53 AM80 °FPartly cloudy.12 mph71%29.86 "Hg10 mi
12:53 AM81 °FPartly cloudy.13 mph67%29.86 "Hg10 mi
11:53 PM
Aug 19
82 °FPassing clouds.15 mph65%29.86 "Hg10 mi
10:53 PM83 °FOvercast.14 mph57%29.86 "Hg10 mi
9:53 PM87 °FMostly cloudy.14 mph50%29.84 "Hg10 mi
8:53 PM90 °FMostly cloudy.9 mph43%29.82 "Hg10 mi
7:53 PM90 °FPartly sunny.9 mph47%29.81 "Hg10 mi
6:53 PM91 °FScattered clouds.17 mph44%29.80 "Hg10 mi
5:53 PM92 °FScattered clouds.14 mph44%29.81 "Hg10 mi
4:53 PM93 °FPartly sunny.14 mph46%29.82 "Hg10 mi
3:53 PM91 °FBroken clouds.8 mph49%29.83 "Hg10 mi
2:53 PM92 °FBroken clouds.12 mph44%29.86 "Hg10 mi
1:53 PM92 °FBroken clouds.10 mph46%29.87 "Hg10 mi
12:53 PM90 °FBroken clouds.9 mph48%29.89 "Hg10 mi
11:53 AM91 °FBroken clouds.12 mph49%29.91 "Hg10 mi
10:53 AM88 °FBroken clouds.13 mph57%29.92 "Hg10 mi
9:53 AM83 °FBroken clouds.13 mph65%29.90 "Hg10 mi
8:53 AM82 °FBroken clouds.8 mph67%29.89 "Hg10 mi
7:53 AM78 °FBroken clouds.3 mph76%29.88 "Hg10 mi
Weather by CustomWeather, © 2014

See weather overviewHow to use our weather pages